Voltar ao catálogo

FREGAT DEB

AtivoUNKNOWN
NORAD 45851·DEBRIS·🇷🇺 Russia

Lançado Jul 18, 2011 de Baikonur Cosmodrome

Loading…

Próximas Passagens (próximas 24 horas)

TLE

AtualizadoSource: Space-Track

Época: Sep 12, 2026, 10:13 UTC

1 45851U 11037CM  26255.42605403  .00002309  00000-0  42383-2 0  9995
2 45851  51.7279 271.1625 1744072 244.6336  96.4139 10.90496414246960

Acompanhe FREGAT DEB em tempo real com AllMySat

Download on the App Store